Regional Weather Roundup
Issued by NWS Nashville, TN

Home | Current Version | Previous Version | Text Only | Print | Product List | Glossary On
Versions: 1 2 3 4 5 6 7 8 9 10 11 12 13 14 15 16 17 18 19 20 21 22 23 24 25 26 27 28
000
ASUS44 KOHX 250110
RWROHX
MIDDLE TENNESSEE HOURLY WEATHER ROUNDUP
NATIONAL WEATHER SERVICE NASHVILLE TN
800 PM CDT SAT JUN 24 2017

NOTE: "FAIR" INDICATES FEW OR NO CLOUDS BELOW 12,000 FEET WITH
NO SIGNIFICANT WEATHER AND/OR OBSTRUCTIONS TO VISIBILITY.

* THESE REPORTS ARE NOT UNDER NWS QUALITY CONTROL AND MAY NOT
  REPORT WEATHER SUCH AS PRECIPITATION AND FOG.


TNZ005>011-023>034-057-059-062>066-078-080-250200
...NORTHERN MIDDLE TENNESSEE...

CITY           SKY/WX    TMP DP  RH WIND       PRES   REMARKS
CLARKSVILLE    PTCLDY    72  56  57 N7        30.11R
CROSSVILLE     PTCLDY    69  58  67 NW6       30.13R
GALLATIN       CLEAR     75  59  57 NW5       30.12R
NASHVILLE      MOCLDY    77  57  50 N10       30.11R
PORTLAND       CLEAR     73  59  60 NW5       30.10R
SMYRNA         PTCLDY    74  62  66 NW5       30.11R
SPARTA         CLEAR     72  61  68 CALM      30.10R
SPRINGFIELD    CLEAR     72  57  60 N6        30.10R
WEST NASHVILLE PTCLDY    73  63  68 NW5       30.08R
$$
TNZ056-058-060-061-075>077-079-093>097-250200
...SOUTHERN MIDDLE TENNESSEE...

CITY           SKY/WX    TMP DP  RH WIND       PRES   REMARKS
COLUMBIA       CLEAR     75  63  64 CALM      30.09R
FAYETTEVILLE   CLEAR     73  61  64 NW5       30.10R
MCMINNVILLE    CLEAR     73  63  68 N5        30.11R
MURFREESBORO   PTCLDY    76  59  55 N5        30.09R
PULASKI        CLEAR     73  61  64 N6        30.10R
SHELBYVILLE    CLEAR     73  61  64 NW6       30.10R
TULLAHOMA      CLEAR     72  57  60 N7        30.12R
WINCHESTER     CLEAR     75  61  60 N5          N/A
$$


...KEY TO REMARKS...
VSB - VISIBILITY IN MILES
WCI - WIND CHILL INDEX
HX  - HEAT INDEX





USA.gov is the U.S. government's official web portal to all federal, state and local government web resources and services.